Location: Proctor
(47.8934°N, 114.3048°W)
Time: 18:29:28
(UTC+00:00)

Transit 4A - Pass Details

Date: 21 May 2025
Orbit: 866 x 975 km, 66.8° (Epoch: 13 June)

Event Time Altitude Azimuth Distance (km) Brightness Sun altitude
Rises 06:28:26 0° 309° (NW) 3,633 11.9 -20.3°
Reaches altitude 10° 06:32:45 10° 337° (NNW) 2,663 11.5 -20.5°
Maximum altitude 06:35:27 13° 3° (N) 2,438 11.1 -20.6°
Drops below altitude 10° 06:38:08 10° 30° (NNE) 2,628 10.9 -20.7°
Sets 06:42:20 0° 58° (ENE) 3,542 11.2 -20.9°
